Weather in Phanes

Greece     36°21′03″N   27°58′50″E
temp.,
°C
wind,
m/s
gust,
m/s
humid.,
%
clouds,
%
prec.,
mm/h
press.,
hPa
HPBL,
m
7 august, sun
sun700:00+22w35810 0.0 1003107
03:00+22wsw23921 0.0 100380
06:00+22wsw11891 0.0 100232
09:00+28ese21570 0.0 1002499
12:00+31ene21490 0.0 10031194
15:00+32ene11493 0.0 10021239
18:00+29nnw22592 0.0 1003724
21:00+24w237983 0.0 100478
8 august, mon
mon800:00+23wsw23811 0.0 100476
03:00+23s11840 0.0 100418
06:00+22sse11870 0.0 100415
09:00+28ese22640 0.0 1005540
12:00+32ese21503 0.0 10061226
15:00+32ssw115113 0.0 10051259
18:00+28n326420 0.2 1006687
21:00+24wnw23870 0.6 100684
9 august, tue
tue900:00+23w34870 0.0 1007101
03:00+22w34890 0.0 1006119
06:00+22wnw34890 0.0 1006101
09:00+28w22575 0.0 1006431
12:00+32ese11410 0.0 10061417
15:00+34nnw02387 0.0 10051658
18:00+29nw44530 0.1 1006643
21:00+23w34750 0.1 100695
10 august, wed
wed1000:00+23w35840 0.0 1006149
03:00+22w45850 0.0 1005129
06:00+21w35880 0.0 1004100
09:00+29wnw12530 0.0 1005376
12:00+33nw13360 0.0 10051283
15:00+33wnw45340 0.0 10041252
18:00+29w68460 0.0 1004443
21:00+23w47780 0.0 1005176
11 august, thu
thu1100:00+24w477626 0.0 1005207
03:00+22wsw34851 0.0 100480
06:00+22wsw11850 0.0 100413
09:00+29nne11480 0.0 1005410
12:00+33ne12380 0.0 10051471
15:00+34nw01361 0.0 10051633
18:00+30nw33440 0.0 1005767
21:00+25wsw32630 0.0 100545